Location: Unspecified
(43.8044°N, 11.0278°E)
Time: 15:35:12
(UTC+02:00)

Cosmos 1674 - Visible Passes

Search period start: 18 April 2014 00:00
Search period end: 28 April 2014 00:00
Orbit: 517 x 546 km, 82.5° (Epoch: 17 April)

Date Brightness Start Highest point End Pass type
(mag) Time Alt. Az. Time Alt. Az. Time Alt. Az.
25 Apr 4.8 05:42:24 10° SSE 05:45:54 32° E 05:49:25 10° NNE visible
26 Apr 4.9 05:32:18 10° SSE 05:35:45 30° E 05:39:11 10° NNE visible
27 Apr 5.0 05:22:12 10° SSE 05:25:35 28° E 05:28:57 10° NNE visible
